User: anonymous   Login
Location: Unspecified
(0.0000°N, 0.0000°E)
Time: 13:55:30
(UTC+00:00)
Language:

USA 112 - Orbit

View from above orbital plane
View from above orbital plane
View from above satellite
View from above satellite

Ground track
Ground track

The orbit data is extracted from the following two-line orbital elements,

1 23609U 95034A   18191.57976999 0.00000000  00000-0  00000-0 0    05
2 23609  63.1627 104.8174 7041925 265.8613  18.1073  2.00613000    03
Epoch (UTC): 10 July 2018 13:54:52
Eccentricity: 0.7041925
inclination: 63.1627°
perigee height: 1477 km
apogee height: 38878 km
right ascension of ascending node: 104.8174°
argument of perigee: 265.8613°
revolutions per day: 2.00613000
mean anomaly at epoch: 18.1073°
orbit number at epoch: 0

The dashed part of the orbit path shows where the satellite is in the earth's shadow,  

DLR